"Pseudo-MPEC" for scaxx12

Created 2024 Jun 21 20:22:11 UT using Find_Orb

Click here for an explanation of pseudo-MPECs

 
 Astrometry: 
     scaxx12* B2024 05 31\i6loT:mqpAstrometryu$1QC-6=M2:F?T@=U1h;G1Q9Z`-(@$xoL92
     scaxx12 KB2024 06 01\dF%q\redacted;wxH7xgk?*PLow7clickGjrax'VRvmvrh2IfZ`L92
     scaxx12  B2024 06 01eG+^,+h2!?J/vcaPDr(@ehereyp7g(a-!Lforc-0explanationIL92

Station data:
(L92) San Costantino  (N38.705391 E16.002110)  Italy.  Observer T. Scarmato.
   0.25-m Newtonian reflector + CCD.

Orbital elements:  scaxx12
   Perihelion 2024 Feb 22.46432 +/- 208 TT = 11:08:37 (JD 2460362.96432)
Epoch 2024 Jun  1.0 TT = JDT 2460462.5   Earth MOID: 0.1662   Ju: 0.9089
M  12.38660124 +/- 80               Me: 0.0908   Ma: 0.0824      AutoNEOCP
n   0.12444383 +/- 0.211            Peri.  211.93273 +/- 60
a   3.97332235 +/- 4.48             Node   238.97143 +/- 3.6
e   0.9505117 +/- 0.227             Incl.   34.09406 +/- 48
P   7.92                   H 15.86  G  0.15   U 11.7  SR
q 0.19663296 +/- 0.803    Q 7.75001173 +/- 23.5           (J2000 ecliptic)
From 3 observations 2024 May 31-June 1 (20.2 min); mean residual 0".14
Residuals in arcseconds: 
240531 L92  .11-  .09-    240601 L92  .21+  .19+    240601 L92  .10-  .10-    

Ephemerides (geocentric):
Date (UTC) HH   RA             Dec           delta  r     elong  mag " sig PA
---- --------  ------------   ------------  ------ ------ -----  --- --------
2024 06 21 20  14 44 03.415   -12 56 16.63  1.5039 2.3103 131.9 19.5  28d  76
2024 06 21 21  14 44 02.276   -12 56 00.33  1.5049 2.3108 131.9 19.5  28d  76
2024 06 21 22  14 44 01.141   -12 55 44.07  1.5059 2.3113 131.8 19.5  28d  76
2024 06 21 23  14 44 00.011   -12 55 27.84  1.5068 2.3119 131.8 19.5  28d  76
2024 06 22 00  14 43 58.885   -12 55 11.65  1.5078 2.3124 131.8 19.5  28d  76
2024 06 22 01  14 43 57.764   -12 54 55.50  1.5088 2.3129 131.7 19.5  28d  76
2024 06 22 02  14 43 56.647   -12 54 39.38  1.5097 2.3135 131.7 19.5  28d  76
2024 06 22 03  14 43 55.535   -12 54 23.30  1.5107 2.3140 131.6 19.6  28d  76
2024 06 22 04  14 43 54.427   -12 54 07.25  1.5117 2.3145 131.6 19.6  28d  76
2024 06 22 05  14 43 53.324   -12 53 51.25  1.5127 2.3150 131.5 19.6  28d  76
2024 06 22 06  14 43 52.225   -12 53 35.27  1.5136 2.3156 131.5 19.6  28d  76
2024 06 22 07  14 43 51.130   -12 53 19.34  1.5146 2.3161 131.4 19.6  28d  77
2024 06 22 08  14 43 50.040   -12 53 03.43  1.5156 2.3166 131.4 19.6  28d  77
2024 06 22 09  14 43 48.954   -12 52 47.57  1.5165 2.3171 131.3 19.6  28d  77
2024 06 22 10  14 43 47.873   -12 52 31.74  1.5175 2.3177 131.3 19.6  28d  77
2024 06 22 11  14 43 46.796   -12 52 15.95  1.5185 2.3182 131.3 19.6  28d  77
2024 06 22 12  14 43 45.723   -12 52 00.19  1.5195 2.3187 131.2 19.6  28d  77
2024 06 22 13  14 43 44.655   -12 51 44.47  1.5204 2.3192 131.2 19.6  28d  77
2024 06 22 14  14 43 43.591   -12 51 28.78  1.5214 2.3198 131.1 19.6  28d  77
2024 06 22 15  14 43 42.532   -12 51 13.13  1.5224 2.3203 131.1 19.6  28d  77
2024 06 22 16  14 43 41.476   -12 50 57.51  1.5234 2.3208 131.0 19.6  28d  77
2024 06 22 17  14 43 40.426   -12 50 41.93  1.5243 2.3214 131.0 19.6  28d  77
2024 06 22 18  14 43 39.379   -12 50 26.39  1.5253 2.3219 130.9 19.6  28d  77
2024 06 22 19  14 43 38.337   -12 50 10.88  1.5263 2.3224 130.9 19.6  28d  77
2024 06 22 20  14 43 37.299   -12 49 55.41  1.5273 2.3229 130.9 19.6  28d  77
2024 06 22 21  14 43 36.266   -12 49 39.97  1.5282 2.3235 130.8 19.6  28d  77
2024 06 22 22  14 43 35.237   -12 49 24.56  1.5292 2.3240 130.8 19.6  28d  77
2024 06 22 23  14 43 34.212   -12 49 09.20  1.5302 2.3245 130.7 19.6  28d  77
2024 06 23 00  14 43 33.192   -12 48 53.86  1.5312 2.3250 130.7 19.6  28d  77
2024 06 23 01  14 43 32.175   -12 48 38.57  1.5322 2.3256 130.6 19.6  28d  77
2024 06 23 02  14 43 31.164   -12 48 23.30  1.5331 2.3261 130.6 19.6  28d  77
2024 06 23 03  14 43 30.156   -12 48 08.07  1.5341 2.3266 130.5 19.6  28d  77
2024 06 23 04  14 43 29.153   -12 47 52.88  1.5351 2.3271 130.5 19.6  28d  77
2024 06 23 05  14 43 28.154   -12 47 37.72  1.5361 2.3277 130.4 19.6  28d  77
2024 06 23 06  14 43 27.159   -12 47 22.60  1.5370 2.3282 130.4 19.6  28d  77
2024 06 23 07  14 43 26.168   -12 47 07.51  1.5380 2.3287 130.4 19.6  28d  77
2024 06 23 08  14 43 25.182   -12 46 52.46  1.5390 2.3292 130.3 19.6  28d  77
2024 06 23 09  14 43 24.200   -12 46 37.44  1.5400 2.3298 130.3 19.6  28d  77
2024 06 23 10  14 43 23.222   -12 46 22.46  1.5410 2.3303 130.2 19.6  28d  77
2024 06 23 11  14 43 22.249   -12 46 07.51  1.5419 2.3308 130.2 19.6  28d  77
2024 06 23 12  14 43 21.280   -12 45 52.59  1.5429 2.3313 130.1 19.6  28d  77
2024 06 23 13  14 43 20.315   -12 45 37.71  1.5439 2.3319 130.1 19.6  28d  77
2024 06 23 14  14 43 19.354   -12 45 22.86  1.5449 2.3324 130.0 19.6  28d  77
2024 06 23 15  14 43 18.397   -12 45 08.05  1.5459 2.3329 130.0 19.6  28d  77
2024 06 23 16  14 43 17.445   -12 44 53.27  1.5468 2.3334 130.0 19.6  28d  77
2024 06 23 17  14 43 16.497   -12 44 38.53  1.5478 2.3340 129.9 19.6  28d  77
2024 06 23 18  14 43 15.553   -12 44 23.82  1.5488 2.3345 129.9 19.6  28d  77
2024 06 23 19  14 43 14.613   -12 44 09.15  1.5498 2.3350 129.8 19.6  28d  77